Date String (YYYY-MM-DD hh:mm:ss) UTC,Instrument flags,absolute air pressure of the measurement (hPa),sample flow rate (lpm),inlet stack bypass flow (lpm),air temperature of the measurement (°C),ambient temperature measured by the external sensor (°C),aerosol sample conditioner tube jacket temperature (°C),OPC LED temperature (°C),internal box temperature (°C),relative humidity of the measurement (%),span deviation,mass concentration of particles derived from Lorenz-Mie calculation of OPC scattering (μg/m³),mass concentration of particles derived from Lorenz-Mie calculation of OPC scattering (μg/m³),mass concentration of particles derived from Lorenz-Mie calculation of OPC scattering (μg/m³)
DateTimeUTC,F1_M11,P_M11,Q1_M11,Q2_M11,T1_M11,T2_M11,T3_M11,T4_M11,T5_M11,U1_M11,ZSPAN_M11,X0_M11,X2_M11,X1_M11
2024-02-07 22:00:00,SystemResetWarning,0809.3,5.00,000.00,020.9,020.3,000.0,029.1,022.6,21.3,0004.0,0012.92,0007.58,0006.94
2024-02-07 22:01:00,SystemResetWarning,0809.3,5.00,000.00,020.9,020.3,000.0,029.1,022.6,21.5,0003.8,0014.31,0007.77,0007.13
2024-02-07 22:02:00,SystemResetWarning,0809.3,5.00,000.00,020.9,020.3,000.0,029.1,022.6,21.2,0003.8,0015.09,0007.98,0007.31
2024-02-07 22:03:00,SystemResetWarning,0809.3,5.00,000.00,020.9,020.3,000.0,029.1,022.6,21.3,0003.7,0015.63,0008.20,0007.48
2024-02-07 22:04:00,SystemResetWarning,0809.2,5.02,000.00,020.9,020.3,000.0,029.1,022.6,19.2,0003.6,0015.61,0008.36,0007.63
2024-02-07 22:05:00,SystemResetWarning,0809.3,4.99,000.00,020.9,020.3,000.0,029.1,022.6,19.5,0003.6,0015.76,0008.46,0007.74
2024-02-07 22:06:00,SystemResetWarning,0809.2,4.99,000.00,020.9,020.3,000.0,029.2,022.6,17.1,0003.4,0016.41,0008.51,0007.79
2024-02-07 22:07:00,SystemResetWarning,0809.3,5.00,000.00,020.9,020.3,000.0,029.2,022.6,15.7,0003.1,0017.12,0008.55,0007.84
2024-02-07 22:08:00,SystemResetWarning,0809.3,5.01,000.00,020.9,020.3,000.0,029.2,022.6,16.8,0002.9,0017.08,0008.46,0007.75
2024-02-07 22:09:00,SystemResetWarning,0809.2,5.01,000.00,020.9,020.3,000.0,029.2,022.6,15.0,0002.9,0017.61,0008.38,0007.67
2024-02-07 22:10:00,SystemResetWarning,0809.2,5.00,000.00,020.9,020.4,000.0,029.2,022.7,15.6,0003.3,0017.22,0008.05,0007.38
2024-02-07 22:11:00,SystemResetWarning,0809.2,4.99,000.00,020.9,020.4,000.0,029.2,022.7,15.2,0003.5,0016.73,0007.70,0007.05
2024-02-07 22:12:00,SystemResetWarning,0809.2,4.99,000.00,020.9,020.4,000.0,029.2,022.7,15.5,0003.6,0015.30,0007.44,0006.79
2024-02-07 22:13:00,SystemResetWarning,0809.2,5.01,000.00,020.9,020.4,000.0,029.2,022.6,15.2,0003.6,0014.22,0007.01,0006.40
2024-02-07 22:14:00,SystemResetWarning,0809.3,5.01,000.00,020.9,020.4,000.0,029.2,022.6,14.5,0003.6,0013.30,0006.56,0006.00
2024-02-07 22:15:00,SystemResetWarning,0809.2,4.98,000.00,020.9,020.4,000.0,029.2,022.6,14.0,0003.7,0012.94,0006.14,0005.62
2024-02-07 22:16:00,SystemResetWarning,0809.3,4.99,000.00,020.9,020.4,000.0,029.2,022.6,13.4,0003.8,0012.19,0005.71,0005.22
2024-02-07 22:17:00,SystemResetWarning,0809.3,5.00,000.00,020.9,020.3,000.0,029.2,022.6,13.9,0003.9,0010.99,0005.26,0004.79
2024-02-07 22:18:00,SystemResetWarning,0809.2,5.01,000.00,020.9,020.3,000.0,029.2,022.6,13.7,0004.2,0008.74,0004.71,0004.30
2024-02-07 22:19:00,SystemResetWarning,0809.1,5.01,000.00,020.9,020.3,000.0,029.2,022.6,12.9,0000.9,0007.98,0004.24,0003.89
2024-02-07 22:20:00,SystemResetWarning,0809.2,5.01,000.00,020.9,020.3,000.0,029.2,022.5,12.6,0000.0,0006.33,0003.72,0003.43
2024-02-07 22:21:00,SystemResetWarning,0809.3,5.00,000.00,020.9,020.3,000.0,029.2,022.6,12.7,0000.0,0005.71,0003.46,0003.20
2024-02-07 22:22:00,SystemResetWarning,0809.2,5.00,000.00,020.9,020.3,000.0,029.2,022.6,12.0,0000.0,0005.21,0003.25,0002.96
2024-02-07 22:23:00,SystemResetWarning,0809.2,5.00,000.00,020.9,020.3,000.0,029.2,022.5,12.1,0000.0,0004.19,0002.71,0002.41
2024-02-07 22:24:00,SystemResetWarning,0809.2,4.99,000.00,020.9,020.3,000.0,029.2,022.5,12.6,0000.0,0003.62,0002.31,0002.07
2024-02-07 22:25:00,SystemResetWarning,0809.2,5.00,000.00,020.9,020.2,000.0,029.2,022.5,12.3,0000.0,0003.42,0001.93,0001.71
2024-02-07 22:26:00,SystemResetWarning,0809.2,5.00,000.00,020.9,020.2,000.0,029.2,022.5,11.8,0000.0,0002.84,0001.60,0001.42
2024-02-07 22:27:00,SystemResetWarning,0809.2,5.00,000.00,020.9,020.2,000.0,029.2,022.6,12.1,0000.0,0002.24,0001.30,0001.16
2024-02-07 22:28:00,SystemResetWarning,0809.2,5.01,000.00,020.9,020.2,000.0,029.2,022.5,12.0,0000.0,0001.93,0001.04,0000.93
2024-02-07 22:29:00,SystemResetWarning,0809.3,5.01,000.00,020.9,020.2,000.0,029.2,022.5,12.0,0000.0,0001.70,0000.85,0000.73
2024-02-07 22:30:00,SystemResetWarning,0809.2,4.98,000.00,020.9,020.2,000.0,029.2,022.5,12.3,0000.0,0001.56,0000.76,0000.63
2024-02-07 22:31:00,SystemResetWarning,0809.3,4.99,000.00,020.9,020.1,000.0,029.2,022.5,12.4,0000.0,0001.42,0000.67,0000.53
2024-02-07 22:32:00,SystemResetWarning,0809.3,5.01,000.00,020.8,020.1,000.0,029.2,022.5,12.6,0000.0,0001.30,0000.55,0000.42
2024-02-07 22:33:00,SystemResetWarning,0809.3,5.01,000.00,020.8,020.1,000.0,029.2,022.5,12.1,0000.0,0001.23,0000.49,0000.37
2024-02-07 22:34:00,SystemResetWarning,0809.2,5.00,000.00,020.8,020.1,000.0,029.2,022.5,11.6,0000.0,0001.25,0000.47,0000.36
2024-02-07 22:35:00,SystemResetWarning,0809.3,5.00,000.00,020.8,020.1,000.0,029.2,022.5,12.0,0000.0,0001.32,0000.50,0000.35
2024-02-07 22:36:00,SystemResetWarning,0809.2,4.99,000.00,020.8,020.1,000.0,029.2,022.5,11.7,0000.0,0001.09,0000.51,0000.35
2024-02-07 22:37:00,SystemResetWarning,0809.3,4.99,000.00,020.8,020.1,000.0,029.1,022.4,11.0,0000.0,0000.80,0000.51,0000.35
2024-02-07 22:38:00,SystemResetWarning,0809.2,5.01,000.00,020.8,020.1,000.0,029.1,022.4,11.7,0000.0,0000.77,0000.49,0000.35
2024-02-07 22:39:00,SystemResetWarning,0809.2,5.02,000.00,020.8,020.1,000.0,029.1,022.4,12.1,0000.0,0000.76,0000.48,0000.35
2024-02-07 22:40:00,SystemResetWarning,0809.2,5.00,000.00,020.8,020.1,000.0,029.1,022.4,11.8,0000.0,0000.77,0000.47,0000.34
2024-02-07 22:41:00,SystemResetWarning,0809.3,4.99,000.00,020.8,020.1,000.0,029.1,022.4,11.8,0000.0,0000.72,0000.45,0000.34
2024-02-07 22:42:00,SystemResetWarning,0809.2,5.00,000.00,020.8,020.1,000.0,029.1,022.4,11.7,0000.0,0000.77,0000.47,0000.35
2024-02-07 22:43:00,SystemResetWarning,0809.2,5.00,000.00,020.8,020.1,000.0,029.1,022.3,11.4,0000.0,0000.80,0000.49,0000.35
2024-02-07 22:44:00,SystemResetWarning,0809.2,4.99,000.00,020.8,020.1,000.0,029.1,022.3,12.0,0000.0,0000.86,0000.50,0000.34
2024-02-07 22:45:00,SystemResetWarning,0809.2,4.99,000.00,020.8,020.1,000.0,029.1,022.3,11.9,0000.0,0000.88,0000.51,0000.35
2024-02-07 22:46:00,SystemResetWarning,0809.2,5.00,000.00,020.8,020.1,000.0,029.1,022.3,11.4,0000.0,0000.83,0000.50,0000.35
2024-02-07 22:47:00,SystemResetWarning,0809.2,5.00,000.00,020.8,020.0,000.0,029.1,022.3,10.7,0000.0,0001.83,0000.48,0000.35
2024-02-07 22:48:00,SystemResetWarning,0809.2,5.01,000.00,020.8,020.0,000.0,029.0,022.3,11.4,0000.0,0002.38,0000.48,0000.34
2024-02-07 22:49:00,SystemResetWarning,0809.3,5.01,000.00,020.8,020.0,000.0,029.0,022.3,11.5,0000.0,0002.38,0000.48,0000.34
2024-02-07 22:50:00,SystemResetWarning,0809.2,4.99,000.00,020.8,020.0,000.0,029.0,022.3,11.7,0000.0,0002.45,0000.50,0000.34
2024-02-07 22:51:00,SystemResetWarning,0809.3,4.99,000.00,020.8,020.0,000.0,029.0,022.3,11.9,0000.0,0002.40,0000.48,0000.34
2024-02-07 22:52:00,SystemResetWarning,0809.3,5.00,000.00,020.7,020.0,000.0,029.0,022.3,11.3,0000.0,0002.45,0000.50,0000.34
2024-02-07 22:53:00,SystemResetWarning,0809.2,5.00,000.00,020.7,020.0,000.0,029.0,022.3,12.3,0000.0,0002.40,0000.48,0000.34
2024-02-07 22:54:00,SystemResetWarning,0809.2,5.00,000.00,020.7,020.0,000.0,029.0,022.3,12.3,0000.0,0002.42,0000.48,0000.34
2024-02-07 22:55:00,SystemResetWarning,0809.3,5.01,000.00,020.7,020.0,000.0,029.0,022.3,12.3,0000.0,0002.36,0000.46,0000.34
2024-02-07 22:56:00,SystemResetWarning,0809.3,5.01,000.00,020.7,020.0,000.0,029.0,022.3,12.0,0000.0,0002.35,0000.47,0000.34
2024-02-07 22:57:00,SystemResetWarning,0809.3,5.00,000.00,020.7,020.0,000.0,029.0,022.3,12.5,0000.0,0002.33,0000.46,0000.33
2024-02-07 22:58:00,SystemResetWarning,0809.2,5.00,000.00,020.7,020.0,000.0,029.0,022.3,12.4,0000.0,0001.15,0000.46,0000.34
2024-02-07 22:59:00,SystemResetWarning,0809.2,5.00,000.00,020.7,020.0,000.0,029.0,022.3,11.5,0000.0,0000.71,0000.46,0000.34
